Showing default

ION SCV-011, 56957

Orbit data source: Space-Track

ION SCV-011, 56957 is a payload satellite owned by D-ORBIT (IT) in SSO that was launched on Mon, 12 Jun 2023 UTC via an FALCON 9 launch vehicle from the Air Force Western Test Range (AFWTR). Payload-class satellites include a variety of spacecraft equipped with specific instruments for various scientific and technological missions. These include communications satellites like Starlink; space stations such as the ISS; scientific satellites like the Hubble; Earth observation satellites from companies like Planet Labs, Umbra, and HawkEye 360; GPS; miniature CubeSats for education and research; and military/defense satellites.

Loading next visibility...
Identifier
56957, 2023-084AB
Orbit
SSO
Country
Flag of ITIT
Related business
Manufacturer
D-ORBIT
Mission
Operational Commercial Technology
Bus & Motor
ION-SC, PM200
Mass
220 kg wet, 150 kg dry
Launch date (UTC)
2023-06-12 (3 years ago)
Launch vehicle
FALCON 9
Launch site
Air Force Western Test Range (AFWTR)
Object type
Payload
Rocket body
Debris
Shape & HBR
Box, 0.3 m
Radar Cross Section
0.240 m², Large (>1 m²)

Expand to show TLE details & history
Last TLE update: 1 day ago

TLE from 1 day ago
0 ION SCV-011
1 56957U 23084AB  26266.47647546  .00003614  00000-0  12883-3 0  9993
2 56957  98.1351 102.9333 0008286  60.9531 299.2537 15.29648438180837
Epoch: 2026-09-23T11:26Z
TLE epoch observation values (Epoch: 2026-09-23T11:26:07.479Z)
Latitude
0.00003°
Longitude
-70.92492°
Altitude
477.171 km
Speed
7.629 km/s
True Right ascension
06h 51m 43s
True Declination
0° 00' 00"
Sunlit
Object was in daylight at epoch
Visualization orbit readout
Latitude
Unknown
Longitude
Unknown
Altitude
Unknown
Speed
Unknown
Apparent Right ascension
Unknown
Apparent Declination
Unknown
Sunlit
N/A
Visualization observer readout
Local Sidereal Time
06:11:06
Azimuth
Unknown
Elevation
Unknown
Doppler factor
Unknown
Orbital elements
Apogee altitude
479.526 km
Perigee altitude
468.171 km
Semi-major axis
6,851.985 km
Eccentricity
0.00083
Inclination
98.1351°
RAAN
102.9333°
Arg. of periapsis
60.9531°
True anomaly
299.17082°
Mean anomaly
299.2537°
Eccentric anomaly
299.21226°
Mean motion
3.82665 °/min
Orbital period
94.08 mins
BSTAR
0.00012883
Loading maneuver chart data...
Computing Atmospheric mass density...
Loading historical data...
Loading historical data...
Loading historical data...
Loading historical data...
Loading historical data...
Loading historical data...
Loading historical data...

Documentation

Showing up to 5 results
|